FW3691 Weather Reports


time (UTC)temp
C
wind
direction
speed
KPH
gust
KPH
rain 1hr
cm
rain 24hr
cm
rain mn
cm
humidity
%
barometer
mb
20260505101541 18 83 4.8 16.1 0.00 0.00 0.00 83 1002.0
20260505100036 18 64 3.2 14.5 0.00 0.00 0.00 83 1001.8
20260505094537 18 83 1.6 11.3 0.00 0.00 0.00 83 1001.8
20260505093040 18 64 4.8 14.5 0.00 0.00 0.00 82 1001.9
20260505091532 18 72 0.0 11.3 0.00 0.00 0.00 82 1001.9
20260505090033 18 80 3.2 11.3 0.00 0.00 0.00 81 1002.1
20260505084528 18 65 1.6 12.9 0.00 0.00 0.00 79 1002.1
20260505083028 19 63 3.2 9.7 0.00 0.00 0.00 78 1002.2
20260505081531 19 58 1.6 8.0 0.00 0.00 0.00 78 1002.3
20260505080027 19 101 3.2 8.0 0.00 0.00 0.00 78 1002.3
20260505074526 19 65 3.2 9.7 0.00 0.00 0.00 79 1002.6
20260505073035 19 53 3.2 8.0 0.00 0.00 0.00 78 1002.9
20260505071525 19 58 4.8 8.0 0.00 0.00 0.00 78 1002.9
20260505070024 18 43 3.2 8.0 0.00 0.00 0.00 79 1002.9
20260505064525 18 36 1.6 6.4 0.00 0.00 0.00 79 1003.3
20260505063025 18 29 3.2 4.8 0.00 0.00 0.00 79 1003.3
20260505061519 19 144 0.0 8.0 0.00 0.00 0.00 76 1002.5
20260505060026 20 86 3.2 11.3 0.00 0.00 0.00 74 1002.1
20260505054530 20 149 3.2 8.0 0.00 0.00 0.00 73 1002.3
20260505053012 20 169 3.2 12.9 0.00 0.00 0.00 73 1002.7
20260505051510 20 165 3.2 12.9 0.00 0.00 0.00 72 1002.6
20260505041504 20 159 6.4 19.3 0.00 0.00 0.00 70 1002.5
20260505040004 20 192 6.4 17.7 0.00 0.00 0.00 69 1002.7
20260505034501 20 102 6.4 16.1 0.00 0.00 0.00 68 1002.9
20260505033115 21 98 6.4 16.1 0.00 0.00 0.00 66 1003.3
20260505031557 21 163 3.2 12.9 0.00 0.00 0.00 66 1003.5
20260505030057 21 153 4.8 12.9 0.00 0.00 0.00 66 1003.9
20260505024604 21 151 4.8 11.3 0.00 0.00 0.00 65 1003.9
20260505023105 21 178 1.6 11.3 0.00 0.00 0.00 63 1003.8
20260505021556 21 175 4.8 11.3 0.00 0.00 0.00 63 1003.7
20260505020056 21 150 3.2 11.3 0.00 0.00 0.00 63 1003.7
20260505014554 22 208 1.6 8.0 0.00 0.00 0.00 62 1003.7
20260505013052 22 161 4.8 14.5 0.00 0.00 0.00 61 1003.8
20260505011559 22 122 1.6 8.0 0.00 0.00 0.00 61 1003.6
20260505010054 23 160 1.6 9.7 0.00 0.00 0.00 60 1003.6
20260505004554 23 179 6.4 19.3 0.00 0.00 0.00 59 1003.5
20260505003050 23 202 4.8 17.7 0.00 0.00 0.00 58 1003.6
20260505001549 23 188 6.4 20.9 0.00 0.00 0.00 58 1003.7
20260505000050 24 129 3.2 14.5 0.00 0.00 0.00 58 1003.8
20260504234612 24 105 4.8 17.7 0.00 0.00 0.00 57 1003.8
20260504233050 24 136 3.2 16.1 0.00 0.00 0.00 57 1003.8
20260504231554 25 124 8.0 17.7 0.00 0.00 0.00 56 1003.8
20260504230046 25 229 6.4 19.3 0.00 0.00 0.00 55 1003.9
20260504224546 25 269 9.7 19.3 0.00 0.00 0.00 55 1003.9
20260504223045 25 186 8.0 16.1 0.00 0.00 0.00 54 1003.8
20260504221552 25 143 3.2 16.1 0.00 0.00 0.00 55 1003.6
20260504220043 25 98 4.8 16.1 0.00 0.00 0.00 54 1003.8
20260504214548 25 236 8.0 16.1 0.00 0.00 0.00 54 1004.0
20260504213048 25 279 6.4 16.1 0.00 0.00 0.00 54 1004.1
20260504211541 26 132 3.2 20.9 0.00 0.00 0.00 54 1004.1
20260504210045 26 154 4.8 19.3 0.00 0.00 0.00 54 1004.2
20260504204617 26 125 6.4 22.5 0.00 0.00 0.00 54 1004.4
20260504203035 26 263 8.0 17.7 0.00 0.00 0.00 53 1004.7
20260504201533 26 103 6.4 16.1 0.00 0.00 0.00 53 1005.0
20260504200037 26 126 6.4 20.9 0.00 0.00 0.00 52 1005.2
20260504194538 26 119 6.4 27.4 0.00 0.00 0.00 54 1005.3
20260504193031 26 132 9.7 25.7 0.00 0.00 0.00 52 1005.2
20260504191528 26 95 9.7 24.1 0.00 0.00 0.00 51 1005.4
20260504190025 26 248 6.4 20.9 0.00 0.00 0.00 51 1005.6
20260504184524 26 148 9.7 29.0 0.00 0.00 0.00 51 1006.0
20260504183022 26 184 6.4 22.5 0.00 0.00 0.00 53 1006.2
20260504181522 26 205 8.0 24.1 0.00 0.00 0.00 52 1006.3
20260504180020 26 144 6.4 22.5 0.00 0.00 0.00 51 1006.5
20260504174517 26 181 3.2 24.1 0.00 0.00 0.00 53 1006.8
20260504173015 26 267 8.0 17.7 0.00 0.00 0.00 51 1007.1
20260504171532 26 244 6.4 17.7 0.00 0.00 0.00 51 1007.2